Temp
-14 -15 -15 -14 -14 -15 -14 -14 -15 -15 -14 -14 -13 -13 -13 -14 -13 -13 -13 -13 -12 -12 -12 -12 -12 -12 -13 -13 -13 -14 -14 -14 -14 -14 -13 -14 -14 -13 -13 -13 -13 -14 -14
-14 -15 -15 -14 -14 -15 -15 -14 -14 -14 -14 -15 -14 -13 -13 -14 -14 -14 -13 -13 -12 -13 -12 -13 -12 -13 -13 -13 -13 -14 -14 -14 -14 -14 -14 -13 -14 -14 -13 -13 -13 -14 -14
-14 -15 -15 -15 -15 -15 -15 -14 -15 -14 -15 -14 -14 -15 -14 -14 -14 -14 -14 -13 -13 -12 -12 -12 -12 -13 -13 -13 -13 -14 -14 -14 -14 -14 -14 -13 -13 -14 -14 -13 -13 -13 -13
-16 -16 -15 -16 -16 -15 -16 -15 -15 -15 -15 -15 -14 -15 -15 -15 -14 -14 -14 -13 -12 -12 -12 -12 -13 -13 -13 -13 -13 -14 -14 -14 -14 -14 -14 -14 -14 -14 -14 -13 -13 -13 -13
-16 -16 -15 -15 -16 -16 -16 -16 -16 -16 -15 -15 -15 -15 -15 -16 -15 -14 -14 -14 -13 -13 -13 -13 -13 -13 -13 -13 -13 -14 -14 -14 -14 -14 -14 -14 -14 -14 -14 -14 -13 -13 -13
-16 -17 -16 -15 -16 -16 -16 -16 -16 -16 -16 -16 -17 -16 -16 -17 -16 -14 -14 -14 -13 -13 -13 -13 -13 -13 -13 -13 -13 -14 -14 -14 -14 -15 -14 -14 -14 -14 -14 -14 -14 -13 -13
-17 -18 -16 -16 -15 -16 -17 -17 -16 -16 -16 -17 -16 -17 -17 -16 -17 -16 -14 -14 -14 -14 -13 -13 -13 -13 -13 -13 -13 -14 -14 -15 -15 -15 -15 -14 -14 -14 -14 -14 -14 -14 -14
-18 -18 -17 -16 -16 -16 -17 -17 -16 -16 -17 -17 -17 -17 -17 -17 -17 -16 -15 -14 -14 -14 -14 -13 -13 -14 -13 -13 -13 -14 -15 -15 -15 -15 -14 -14 -15 -14 -14 -14 -14 -14 -14
-20 -19 -17 -17 -17 -17 -18 -17 -17 -17 -17 -17 -17 -17 -17 -18 -18 -17 -16 -15 -14 -14 -14 -14 -13 -13 -13 -13 -13 -14 -15 -15 -15 -15 -15 -14 -15 -15 -14 -13 -14 -13 -13
-20 -20 -18 -18 -17 -18 -18 -18 -18 -18 -18 -18 -19 -18 -18 -18 -18 -18 -16 -16 -15 -15 -15 -14 -13 -13 -13 -13 -13 -14 -15 -15 -15 -15 -15 -15 -15 -14 -14 -14 -14 -14 -13
-20 -20 -19 -18 -18 -18 -17 -18 -18 -18 -18 -18 -18 -18 -18 -19 -19 -18 -17 -16 -16 -16 -15 -14 -14 -13 -13 -13 -13 -14 -15 -15 -15 -15 -15 -15 -15 -14 -14 -14 -14 -14 -13
-20 -20 -19 -18 -18 -18 -18 -18 -18 -18 -18 -18 -18 -18 -18 -18 -19 -18 -18 -17 -16 -15 -15 -14 -14 -14 -14 -13 -13 -14 -15 -15 -15 -15 -15 -15 -15 -14 -14 -14 -14 -14 -13
-18 -19 -19 -19 -18 -18 -18 -18 -18 -18 -18 -17 -18 -18 -19 -18 -18 -18 -18 -18 -16 -16 -16 -15 -14 -14 -14 -14 -14 -14 -15 -15 -15 -15 -15 -15 -15 -15 -15 -15 -14 -14 -13
-19 -19 -19 -18 -19 -18 -18 -18 -18 -18 -17 -17 -18 -18 -18 -18 -18 -18 -17 -17 -17 -16 -16 -15 -15 -14 -14 -14 -14 -14 -15 -15 -15 -16 -15 -15 -15 -15 -15 -15 -15 -13 -13
-21 -19 -19 -19 -19 -18 -19 -18 -18 -17 -18 -18 -19 -19 -18 -18 -18 -18 -18 -17 -17 -16 -16 -16 -15 -15 -15 -15 -15 -14 -15 -15 -16 -15 -15 -15 -15 -15 -15 -15 -14 -13 -13
-21 -20 -20 -19 -19 -19 -19 -18 -18 -18 -18 -19 -19 -19 -19 -19 -19 -19 -19 -18 -17 -17 -16 -16 -15 -15 -15 -14 -15 -14 -15 -15 -15 -15 -15 -15 -15 -15 -15 -15 -15 -15 -13
-22 -21 -21 -20 -20 -20 -20 -20 -19 -19 -19 -19 -20 -19 -19 -19 -19 -19 -18 -18 -18 -17 -16 -16 -15 -15 -15 -14 -14 -15 -15 -15 -15 -16 -16 -15 -15 -15 -15 -15 -14 -14 -15
-23 -22 -22 -21 -21 -20 -20 -20 -20 -20 -20 -19 -19 -19 -19 -19 -19 -19 -19 -18 -18 -17 -16 -16 -15 -15 -15 -15 -15 -14 -15 -14 -15 -15 -16 -16 -15 -15 -15 -14 -14 -14 -14
-23 -23 -22 -22 -22 -22 -22 -21 -20 -21 -21 -21 -20 -19 -19 -19 -19 -19 -19 -18 -17 -17 -16 -16 -16 -15 -15 -15 -15 -13 -14 -14 -15 -15 -16 -16 -15 -15 -15 -14 -14 -14 -15
-23 -22 -22 -22 -22 -21 -21 -21 -21 -21 -21 -20 -20 -20 -20 -19 -19 -18 -18 -18 -17 -17 -17 -16 -16 -15 -15 -15 -14 -15 -14 -14 -15 -16 -16 -16 -15 -15 -15 -15 -14 -15 -15
-22 -22 -22 -21 -21 -21 -21 -20 -20 -20 -20 -20 -20 -19 -19 -19 -19 -18 -18 -18 -17 -16 -16 -16 -16 -16 -15 -15 -15 -15 -15 -15 -15 -16 -16 -16 -15 -15 -15 -15 -14 -14 -14
-22 -22 -22 -22 -22 -21 -21 -20 -20 -20 -20 -20 -20 -20 -19 -19 -18 -18 -18 -17 -17 -16 -16 -15 -16 -16 -15 -15 -15 -16 -16 -15 -15 -16 -16 -16 -16 -15 -15 -14 -14 -14 -14
-23 -23 -23 -23 -22 -22 -22 -22 -21 -21 -21 -20 -20 -20 -20 -19 -19 -18 -18 -17 -17 -16 -16 -15 -15 -16 -15 -15 -15 -15 -15 -15 -15 -15 -16 -16 -16 -15 -15 -15 -14 -14 -14
-23 -23 -23 -23 -22 -22 -22 -22 -22 -22 -22 -21 -21 -21 -20 -20 -20 -19 -18 -18 -17 -17 -16 -15 -15 -16 -16 -16 -15 -15 -15 -15 -14 -15 -16 -16 -15 -16 -16 -15 -15 -14 -14
-23 -23 -23 -22 -22 -23 -23 -23 -23 -23 -23 -22 -22 -21 -21 -21 -20 -20 -19 -19 -17 -17 -16 -15 -15 -15 -15 -16 -16 -15 -15 -15 -15 -15 -16 -16 -15 -16 -16 -15 -15 -15 -14
-24 -24 -23 -23 -23 -23 -23 -23 -23 -23 -23 -24 -23 -23 -22 -22 -22 -21 -21 -20 -19 -17 -15 -15 -15 -15 -15 -15 -16 -16 -15 -15 -14 -15 -16 -16 -16 -15 -16 -15 -15 -15 -15
Height
5708 5706 5706 5707 5708 5712 5713 5715 5718 5723 5726 5729 5732 5735 5740 5739 5740 5741 5742 5744 5746 5749 5751 5753 5755 5756 5756 5755 5754 5755 5754 5755 5755 5754 5753 5753 5752 5753 5754 5756 5760 5762 5764
5691 5689 5691 5695 5696 5697 5698 5705 5709 5711 5713 5716 5719 5722 5728 5729 5731 5731 5733 5735 5738 5740 5743 5745 5747 5748 5749 5748 5746 5747 5749 5750 5750 5751 5749 5750 5751 5750 5751 5754 5756 5757 5759
5675 5673 5679 5678 5682 5685 5688 5693 5697 5698 5700 5703 5706 5709 5714 5718 5721 5723 5723 5724 5728 5730 5733 5737 5738 5740 5741 5742 5741 5742 5744 5744 5745 5746 5745 5744 5746 5745 5746 5749 5751 5753 5756
5655 5656 5663 5666 5671 5674 5676 5679 5684 5687 5690 5692 5694 5697 5701 5706 5710 5713 5713 5714 5717 5721 5725 5729 5731 5733 5734 5736 5735 5735 5737 5738 5739 5741 5739 5739 5741 5741 5742 5744 5746 5748 5751
5645 5650 5654 5656 5658 5662 5665 5669 5673 5675 5677 5679 5681 5684 5687 5692 5697 5702 5705 5706 5706 5712 5716 5720 5723 5726 5726 5728 5729 5728 5730 5732 5732 5734 5734 5734 5735 5736 5737 5738 5739 5741 5745
5631 5635 5642 5645 5647 5650 5654 5658 5661 5663 5665 5667 5670 5673 5675 5677 5684 5690 5695 5697 5696 5701 5706 5711 5713 5716 5718 5720 5720 5721 5723 5725 5726 5728 5729 5729 5729 5732 5731 5732 5732 5734 5737
5614 5620 5628 5633 5636 5639 5643 5646 5647 5648 5651 5655 5658 5663 5665 5666 5672 5678 5684 5687 5687 5691 5697 5700 5703 5707 5710 5711 5712 5713 5715 5717 5718 5721 5722 5722 5723 5722 5724 5724 5725 5727 5729
5598 5604 5615 5620 5625 5627 5632 5636 5635 5639 5642 5645 5648 5651 5653 5656 5661 5667 5672 5677 5679 5683 5688 5690 5694 5697 5701 5702 5703 5705 5706 5709 5710 5713 5714 5715 5715 5713 5715 5716 5718 5718 5721
5588 5593 5601 5607 5611 5615 5619 5624 5624 5631 5633 5636 5638 5641 5643 5646 5651 5657 5662 5667 5670 5673 5677 5681 5684 5689 5692 5693 5694 5697 5699 5700 5702 5705 5706 5707 5706 5706 5706 5706 5709 5709 5712
5579 5584 5590 5592 5598 5603 5608 5613 5616 5620 5623 5625 5630 5631 5633 5637 5640 5646 5652 5656 5660 5662 5668 5672 5675 5679 5682 5684 5685 5689 5691 5693 5694 5696 5697 5698 5699 5698 5697 5697 5698 5700 5706
5572 5579 5582 5584 5587 5592 5599 5603 5607 5609 5611 5616 5621 5624 5627 5628 5631 5634 5639 5645 5649 5653 5658 5661 5665 5668 5672 5674 5677 5679 5682 5684 5685 5688 5690 5690 5689 5689 5688 5688 5687 5693 5692
5569 5574 5577 5579 5582 5586 5590 5594 5598 5600 5605 5609 5613 5616 5619 5620 5622 5625 5629 5634 5639 5643 5646 5651 5654 5658 5662 5665 5667 5670 5673 5675 5677 5679 5680 5682 5681 5680 5679 5679 5675 5679 5681
5550 5562 5570 5574 5577 5577 5580 5586 5590 5594 5599 5602 5604 5608 5611 5613 5613 5615 5617 5621 5627 5631 5635 5639 5644 5647 5653 5655 5658 5661 5663 5665 5667 5670 5672 5673 5672 5671 5670 5669 5667 5668 5670
5551 5553 5552 5555 5560 5565 5570 5576 5582 5586 5590 5593 5596 5600 5603 5604 5604 5605 5608 5611 5614 5619 5623 5627 5633 5637 5642 5644 5647 5651 5654 5656 5658 5660 5663 5664 5664 5663 5661 5660 5659 5658 5661
5545 5547 5550 5550 5553 5557 5562 5568 5573 5578 5581 5585 5588 5593 5595 5594 5595 5596 5597 5600 5603 5607 5612 5616 5621 5625 5630 5633 5637 5642 5644 5645 5648 5651 5654 5654 5655 5653 5652 5651 5649 5649 5652
5543 5543 5540 5541 5546 5551 5556 5560 5564 5570 5574 5577 5581 5584 5586 5586 5588 5590 5591 5592 5592 5596 5600 5604 5608 5613 5619 5624 5627 5629 5631 5634 5636 5640 5644 5645 5646 5645 5644 5643 5642 5643 5644
5542 5540 5541 5541 5545 5549 5553 5556 5558 5562 5566 5570 5573 5575 5577 5578 5580 5582 5583 5584 5583 5585 5588 5592 5597 5602 5607 5612 5613 5616 5622 5626 5629 5631 5633 5635 5636 5636 5636 5635 5635 5635 5637
5541 5541 5541 5539 5540 5543 5547 5549 5552 5554 5558 5562 5564 5565 5567 5569 5571 5572 5573 5574 5574 5575 5577 5581 5586 5591 5596 5599 5600 5590 5607 5615 5618 5622 5624 5625 5626 5627 5626 5625 5625 5626 5627
5537 5538 5538 5538 5539 5541 5542 5544 5545 5546 5549 5552 5553 5554 5556 5559 5561 5563 5563 5563 5564 5564 5567 5570 5573 5578 5585 5588 5588 5589 5599 5605 5608 5612 5614 5615 5616 5617 5617 5616 5616 5619 5619
5531 5532 5533 5534 5536 5536 5537 5538 5538 5539 5540 5541 5542 5544 5548 5550 5551 5553 5554 5553 5553 5554 5556 5559 5562 5565 5572 5578 5582 5582 5590 5593 5597 5601 5603 5606 5606 5607 5608 5608 5607 5607 5608
5524 5523 5524 5525 5527 5528 5529 5529 5529 5529 5530 5531 5532 5534 5536 5537 5538 5538 5540 5542 5541 5543 5545 5547 5550 5553 5560 5565 5568 5574 5576 5580 5584 5589 5593 5596 5597 5598 5599 5599 5598 5598 5597
5521 5521 5520 5520 5518 5517 5516 5516 5518 5518 5520 5518 5517 5517 5518 5520 5522 5523 5525 5527 5528 5529 5533 5535 5539 5542 5547 5553 5556 5561 5565 5569 5572 5578 5582 5585 5588 5589 5590 5591 5590 5590 5588
5518 5518 5516 5514 5512 5510 5509 5508 5507 5505 5505 5505 5504 5503 5503 5504 5505 5506 5509 5511 5512 5513 5517 5522 5525 5528 5534 5541 5545 5547 5553 5557 5562 5567 5573 5576 5578 5581 5582 5582 5582 5582 5581
5513 5511 5508 5507 5505 5503 5502 5500 5498 5495 5493 5491 5489 5488 5488 5487 5488 5490 5491 5493 5496 5497 5502 5505 5511 5515 5519 5527 5535 5539 5544 5547 5551 5556 5562 5565 5568 5572 5573 5575 5575 5575 5577
5505 5503 5501 5499 5496 5495 5492 5489 5486 5484 5480 5477 5474 5472 5471 5471 5471 5472 5473 5475 5479 5482 5487 5490 5496 5503 5508 5514 5520 5527 5533 5535 5540 5544 5549 5553 5558 5561 5563 5566 5567 5568 5569
5502 5499 5496 5493 5490 5486 5483 5480 5476 5471 5467 5463 5460 5457 5455 5454 5455 5455 5455 5456 5459 5464 5470 5476 5482 5488 5496 5502 5508 5516 5521 5524 5529 5534 5538 5543 5548 5552 5554 5556 5558 5559 5561
Wind_Speed
41 48 57 64 67 67 77 77 66 66 64 55 50 45 39 44 38 35 36 39 38 38 37 35 32 30 25 26 28 23 22 21 21 19 15 10 7 18 21 27 22 23 24
46 45 46 54 58 55 58 53 63 69 66 61 57 54 45 43 35 43 43 39 38 40 38 36 32 30 27 28 28 26 24 23 23 20 18 15 13 13 25 25 23 21 24
58 51 45 48 52 54 57 49 49 61 58 59 59 53 48 44 45 48 47 43 42 41 41 37 36 32 29 29 30 32 27 28 23 22 19 19 16 17 19 24 23 25 26
53 48 49 45 44 47 51 51 51 52 59 56 63 59 50 48 47 49 48 46 42 41 40 38 36 32 29 27 32 32 32 30 25 23 21 21 18 16 16 28 29 26 26
59 51 50 45 43 49 55 49 53 55 56 54 54 51 53 48 48 47 47 46 46 42 39 39 36 34 32 31 32 34 31 30 27 26 24 20 21 20 16 21 31 35 31
58 51 47 46 46 48 55 54 55 50 51 46 46 43 49 49 44 42 44 46 49 46 41 38 39 36 34 31 32 35 33 30 29 28 29 25 22 23 22 25 26 30 37
60 51 49 45 47 51 55 56 54 52 53 48 49 43 47 52 43 40 42 47 48 45 39 39 40 37 35 34 32 33 33 30 30 29 29 29 25 25 27 28 29 30 33
54 51 48 46 46 51 52 59 59 58 50 51 54 49 48 49 37 36 35 41 46 44 41 41 41 39 36 35 31 35 31 31 31 31 32 30 28 29 27 29 34 35 35
42 47 43 45 46 50 57 59 53 51 45 41 37 44 47 49 39 35 38 40 43 44 45 47 41 42 38 36 31 32 32 32 33 31 32 30 29 30 30 28 30 34 35
40 41 45 46 46 45 42 42 50 50 41 31 33 37 36 43 40 38 39 42 42 41 42 44 44 43 39 36 32 34 34 36 34 33 32 30 31 29 28 31 32 32 44
33 40 44 45 42 39 41 43 43 40 30 29 36 34 41 40 41 47 47 38 39 41 42 42 42 40 41 37 36 36 34 35 35 35 32 32 31 27 30 29 30 42 39
29 37 44 44 42 44 40 40 42 37 34 39 39 39 42 46 48 45 49 53 44 45 43 44 42 41 41 40 40 36 36 37 37 35 34 31 31 30 29 33 37 42 42
38 52 44 43 48 48 50 40 44 40 43 41 37 42 34 31 36 37 43 43 48 44 46 43 41 42 43 40 42 39 40 40 37 36 35 33 31 29 31 36 37 43 43
48 40 32 45 38 40 54 48 47 50 45 38 37 39 33 38 36 36 40 47 47 49 49 47 45 44 43 41 42 41 40 39 36 38 37 33 32 28 32 32 32 35 37
13 38 41 41 40 36 37 50 49 52 47 42 40 37 37 32 27 30 37 39 46 53 53 46 47 48 46 43 43 41 42 42 41 40 37 35 33 30 28 32 32 33 40
20 27 28 51 55 56 49 50 55 51 46 41 39 38 33 28 17 20 30 38 42 46 51 49 48 48 47 42 43 45 44 45 43 40 38 36 34 31 29 29 35 30 38
19 22 28 25 35 35 33 33 39 43 40 38 38 35 32 30 30 25 23 30 38 41 45 51 50 44 44 45 50 50 44 44 42 41 37 37 34 33 30 29 32 35 32
16 16 21 22 25 27 30 31 34 32 36 35 34 34 35 36 36 35 26 27 36 39 43 46 52 50 45 49 54 44 44 41 42 40 38 37 36 34 31 30 31 34 31
19 11 13 13 15 18 19 25 30 29 31 35 38 41 41 37 42 38 31 30 36 40 41 44 48 54 49 48 54 41 43 41 41 41 40 39 36 34 31 31 30 34 37
22 21 21 21 23 24 23 28 32 34 36 38 35 35 37 38 42 42 40 43 39 39 40 45 46 52 51 45 56 52 46 44 43 41 41 40 35 33 32 30 31 38 33
20 24 27 26 27 27 30 33 34 37 40 43 43 44 43 42 44 45 46 50 50 41 45 43 49 50 49 48 48 54 44 46 44 42 43 40 37 33 31 31 30 35 36
15 21 25 28 27 26 29 32 37 41 46 46 46 46 45 46 49 54 56 51 53 51 44 47 47 50 51 47 48 52 45 46 44 45 45 40 38 33 32 32 30 32 31
9 13 18 21 23 25 28 33 36 40 42 46 49 47 46 50 51 57 60 60 59 61 49 51 47 48 52 53 50 50 42 44 46 44 44 40 39 34 32 32 29 31 27
19 20 22 23 25 27 31 34 37 40 44 47 48 49 51 49 49 59 63 63 66 71 59 54 49 47 50 52 53 44 43 45 43 42 43 43 42 38 35 32 29 28 31
21 23 25 26 27 29 30 32 34 40 43 44 46 49 51 51 51 56 57 61 68 67 54 55 51 48 50 52 48 49 54 51 45 44 45 44 45 41 38 34 31 29 29
18 20 23 25 25 26 29 30 34 35 34 35 35 33 32 32 36 42 48 50 51 53 55 56 53 51 49 51 51 46 50 44 43 43 44 45 46 43 40 38 36 34 32
Wind_Direction
266 256 251 253 257 258 252 253 257 261 263 261 260 260 261 260 243 250 248 254 259 256 257 258 260 265 269 272 277 275 275 276 277 278 284 297 243 235 243 220 236 235 233
277 266 256 251 251 252 258 260 260 258 259 259 258 258 256 257 249 245 247 248 251 253 252 252 253 257 262 275 268 273 271 274 270 276 273 266 282 265 240 243 237 235 238
274 267 259 256 245 249 248 255 256 255 249 251 255 254 250 244 243 241 241 241 242 245 245 249 251 252 256 272 265 269 267 265 264 271 276 270 270 264 244 240 229 243 245
264 259 260 255 251 250 248 249 252 255 253 250 251 248 244 240 237 239 240 240 241 241 240 248 251 256 262 260 257 261 258 262 265 259 272 271 269 275 252 231 240 227 241
261 264 263 256 252 250 250 248 250 251 254 256 255 255 242 234 234 235 237 238 240 240 246 246 247 249 255 258 258 255 259 258 261 259 263 271 271 267 264 244 242 243 243
260 257 256 253 248 247 250 251 254 248 249 248 257 260 245 232 233 230 229 232 239 240 241 243 242 248 249 252 251 247 254 256 261 258 257 267 273 262 260 248 245 250 244
259 246 248 246 249 244 248 249 249 248 250 244 250 256 260 235 233 229 225 227 235 240 241 241 243 249 248 249 249 246 251 256 259 260 257 258 274 269 258 254 249 254 247
251 241 237 240 242 244 247 246 254 257 252 246 247 254 258 237 237 238 231 227 233 240 242 246 247 246 249 249 251 242 249 255 258 258 257 258 270 277 257 261 255 252 242
239 224 218 227 235 239 243 247 251 252 256 246 251 251 251 230 231 235 239 234 233 239 241 245 246 246 245 243 254 245 243 252 256 257 258 262 272 274 273 261 248 235 244
224 220 218 222 230 238 243 243 249 257 252 251 260 255 247 240 220 228 233 233 235 236 239 240 239 242 243 245 250 246 238 248 253 256 259 263 273 264 264 256 257 249 254
220 214 218 222 224 233 239 243 251 248 243 251 257 256 255 236 246 237 229 230 228 234 238 236 239 239 241 245 246 244 240 247 254 256 259 258 271 268 259 267 250 259 247
217 214 221 227 234 233 237 246 245 237 249 250 259 270 259 249 253 250 236 236 227 233 236 236 241 243 242 244 245 243 240 246 255 254 259 261 271 266 274 267 274 248 249
195 196 212 219 219 231 236 237 244 241 243 251 261 268 264 269 280 268 233 228 233 236 238 242 241 245 241 241 244 241 240 244 252 254 257 259 267 267 266 265 268 247 244
212 214 172 184 195 206 219 229 240 234 238 252 259 263 269 278 272 264 256 237 232 235 236 240 240 241 238 237 243 241 239 243 249 253 257 258 264 272 263 267 275 241 234
195 206 212 215 230 233 248 232 237 239 240 246 252 255 268 274 273 267 260 255 242 237 240 239 239 240 238 239 240 241 241 242 247 252 254 257 263 268 271 268 277 234 232
203 208 211 222 235 238 236 231 229 233 239 245 254 257 263 268 257 276 275 258 246 240 239 235 235 237 239 238 237 237 239 239 242 247 252 256 260 266 268 267 264 272 239
238 228 219 214 209 215 225 229 225 233 240 243 248 256 261 265 258 251 266 281 255 246 242 235 232 231 233 234 233 235 239 245 244 246 250 253 259 266 268 275 261 258 263
266 258 247 244 247 247 241 238 237 232 237 248 256 258 264 264 272 255 254 284 273 257 244 237 234 231 230 232 233 231 231 242 241 244 249 252 256 265 269 272 266 256 257
262 263 263 263 260 256 261 257 251 257 256 262 269 274 270 269 263 265 252 273 286 263 251 241 235 234 232 235 237 233 236 239 240 243 248 251 255 264 269 276 268 258 266
262 270 267 269 271 272 272 269 267 269 275 277 279 280 278 274 272 267 263 275 277 271 260 245 240 235 233 234 232 234 229 237 239 242 247 252 254 262 268 276 266 270 263
268 268 267 272 274 274 274 277 276 278 276 275 275 274 272 271 269 267 268 264 267 274 260 254 241 238 237 233 230 232 231 235 237 240 245 249 253 260 268 274 267 273 263
248 252 255 262 267 272 274 276 277 276 275 280 280 280 281 279 278 273 271 271 263 266 260 253 243 243 235 231 231 235 237 241 238 239 243 246 251 256 265 270 266 272 263
258 254 258 266 269 271 273 274 273 274 273 273 275 277 279 282 284 280 273 274 272 269 269 246 243 240 232 231 231 231 236 241 242 241 244 246 250 253 259 265 270 265 268
286 284 283 282 282 280 275 271 269 268 268 266 268 270 274 277 280 277 274 274 273 275 270 244 240 239 235 233 226 226 236 244 242 241 240 243 248 250 254 258 264 266 260
294 292 291 289 289 286 286 287 286 280 280 274 270 268 268 269 269 270 267 266 267 265 253 238 238 236 233 235 234 231 233 241 240 238 237 238 246 246 251 255 258 261 262
305 298 298 297 293 289 288 284 290 286 280 279 276 272 270 266 263 266 266 261 254 250 238 231 234 235 232 232 230 226 235 239 240 239 233 242 248 252 249 255 256 258 258